When you browse on this site, cookies collect data to enhance your experience and personalize the content and advertising you see.
Visit our Privacy Policy to learn more. By continuing to use the site, you agree to this use of cookies and data.
  • In Latvia
  • List of Countries
  • For 7 days
  • Water Temperature
  • Weather Map
  • Weather Widgets
  • user-avatar
    Login

    Hourly Weather Tavricheskoe

    Today, 28 May, Thursday

    Time Temperature Precipitation Wind Pressure Humidity
    00:00 +8°C° 0 mm 4 mps 741 mmHg 64%
    01:00 +7°C° 0 mm 4 mps 741 mmHg 66%
    02:00 +8°C° 0 mm 3 mps 741 mmHg 69%
    03:00 +8°C° 0 mm 3 mps 741 mmHg 69%
    04:00 +8°C° 0 mm 3 mps 741 mmHg 69%
    05:00 +8°C° 0 mm 3 mps 741 mmHg 70%
    06:00 +10°C° 0 mm 3 mps 741 mmHg 63%
    07:00 +12°C° 0 mm 4 mps 742 mmHg 56%
    08:00 +14°C° 0 mm 5 mps 742 mmHg 49%
    09:00 +16°C° 0 mm 5 mps 741 mmHg 47%
    10:00 +17°C° 0 mm 5 mps 741 mmHg 44%
    11:00 +19°C° 0 mm 6 mps 740 mmHg 41%
    12:00 +20°C° 0 mm 6 mps 740 mmHg 42%
    13:00 +20°C° 0 mm 7 mps 740 mmHg 42%
    14:00 +20°C° 0 mm 7 mps 740 mmHg 43%
    15:00 +20°C° 0 mm 7 mps 739 mmHg 45%
    16:00 +18°C° 0 mm 7 mps 739 mmHg 47%
    17:00 +17°C° 0 mm 7 mps 739 mmHg 48%
    18:00 +15°C° 0 mm 6 mps 739 mmHg 53%
    19:00 +14°C° 0 mm 5 mps 740 mmHg 58%
    20:00 +12°C° 0 mm 5 mps 740 mmHg 63%
    21:00 +11°C° 0 mm 4 mps 740 mmHg 65%
    22:00 +10°C° 0 mm 4 mps 740 mmHg 66%
    23:00 +10°C° 0 mm 4 mps 740 mmHg 68%

    Tomorrow, 29 May, Friday

    Time Temperature Precipitation Wind Pressure Humidity
    00:00 +9°C° 0 mm 3 mps 739 mmHg 70%
    01:00 +8°C° 0 mm 3 mps 739 mmHg 72%
    02:00 +8°C° 0 mm 2 mps 739 mmHg 75%
    03:00 +8°C° 0 mm 2 mps 739 mmHg 73%
    04:00 +9°C° 0 mm 2 mps 739 mmHg 72%
    05:00 +9°C° 0 mm 2 mps 739 mmHg 70%
    06:00 +11°C° 0 mm 3 mps 739 mmHg 63%
    07:00 +14°C° 0 mm 4 mps 738 mmHg 56%
    08:00 +16°C° 0 mm 5 mps 738 mmHg 48%
    09:00 +17°C° 0 mm 5 mps 738 mmHg 45%
    10:00 +20°C° 0 mm 5 mps 738 mmHg 41%
    11:00 +21°C° 0 mm 5 mps 737 mmHg 37%
    12:00 +22°C° 0 mm 5 mps 737 mmHg 37%
    13:00 +22°C° 0 mm 5 mps 737 mmHg 37%
    14:00 +23°C° 0 mm 6 mps 737 mmHg 38%
    15:00 +22°C° 0 mm 6 mps 736 mmHg 40%
    16:00 +22°C° 0 mm 5 mps 736 mmHg 42%
    17:00 +21°C° 0 mm 5 mps 736 mmHg 44%
    18:00 +19°C° 0 mm 4 mps 736 mmHg 50%
    19:00 +17°C° 0 mm 3 mps 736 mmHg 55%
    20:00 +15°C° 0 mm 2 mps 736 mmHg 60%
    21:00 +14°C° 0 mm 2 mps 736 mmHg 62%
    22:00 +13°C° 0 mm 1 mps 736 mmHg 63%
    23:00 +12°C° 0 mm 1 mps 735 mmHg 65%

    Day after tomorrow, 30 May, Saturday

    Time Temperature Precipitation Wind Pressure Humidity
    00:00 +12°C° 0 mm 1 mps 735 mmHg 66%
    01:00 +11°C° 0 mm 0 mps 735 mmHg 67%
    02:00 +10°C° 0 mm 0 mps 735 mmHg 69%
    03:00 +11°C° 0 mm 0 mps 735 mmHg 68%
    04:00 +12°C° 0 mm 0 mps 735 mmHg 68%
    05:00 +13°C° 0 mm 1 mps 735 mmHg 67%
    06:00 +15°C° 0 mm 1 mps 735 mmHg 62%
    07:00 +18°C° 0 mm 1 mps 735 mmHg 57%
    08:00 +20°C° 0 mm 1 mps 735 mmHg 52%
    09:00 +22°C° 0 mm 1 mps 735 mmHg 48%
    10:00 +24°C° 0 mm 2 mps 735 mmHg 43%
    11:00 +26°C° 0 mm 2 mps 735 mmHg 38%
    12:00 +27°C° 0 mm 3 mps 735 mmHg 38%
    13:00 +28°C° 0 mm 4 mps 735 mmHg 37%
    14:00 +28°C° 0 mm 5 mps 736 mmHg 36%
    15:00 +27°C° 0 mm 5 mps 736 mmHg 37%
    16:00 +26°C° 0 mm 5 mps 736 mmHg 38%
    17:00 +25°C° 0 mm 5 mps 736 mmHg 38%
    18:00 +22°C° 0 mm 4 mps 736 mmHg 45%
    19:00 +20°C° 0 mm 3 mps 736 mmHg 53%
    20:00 +17°C° 0 mm 2 mps 736 mmHg 60%
    21:00 +16°C° 0 mm 2 mps 736 mmHg 63%
    22:00 +15°C° 0 mm 1 mps 737 mmHg 67%
    23:00 +14°C° 0 mm 1 mps 737 mmHg 70%

    31 May, Sunday

    Time Temperature Precipitation Wind Pressure Humidity
    00:00 +14°C° 0 mm 1 mps 737 mmHg 71%
    01:00 +13°C° 0 mm 1 mps 736 mmHg 73%
    02:00 +13°C° 0 mm 1 mps 736 mmHg 74%
    03:00 +14°C° 0 mm 1 mps 736 mmHg 72%
    04:00 +13°C° 0 mm 0 mps 736 mmHg 71%
    05:00 +14°C° 0 mm 0 mps 736 mmHg 70%
    06:00 +18°C° 0 mm 1 mps 736 mmHg 63%
    07:00 +20°C° 0 mm 1 mps 736 mmHg 56%
    08:00 +22°C° 0 mm 1 mps 736 mmHg 49%
    09:00 +23°C° 0 mm 2 mps 736 mmHg 44%
    10:00 +25°C° 0 mm 2 mps 736 mmHg 38%
    11:00 +26°C° 0 mm 2 mps 736 mmHg 33%
    12:00 +27°C° 0 mm 2 mps 736 mmHg 32%
    13:00 +27°C° 0 mm 3 mps 735 mmHg 30%
    14:00 +28°C° 0 mm 3 mps 735 mmHg 29%
    15:00 +28°C° 0 mm 2 mps 735 mmHg 29%
    16:00 +28°C° 0 mm 1 mps 734 mmHg 30%
    17:00 +28°C° 0 mm 1 mps 734 mmHg 30%
    18:00 +26°C° 0 mm 1 mps 734 mmHg 35%
    19:00 +23°C° 0 mm 2 mps 733 mmHg 41%
    20:00 +20°C° 0 mm 3 mps 733 mmHg 46%
    21:00 +19°C° 0 mm 3 mps 733 mmHg 48%
    22:00 +19°C° 0 mm 3 mps 733 mmHg 50%
    23:00 +18°C° 0 mm 2 mps 732 mmHg 51%

    1 June, Monday

    Time Temperature Precipitation Wind Pressure Humidity
    00:00 +18°C° 0 mm 3 mps 732 mmHg 52%
    01:00 +18°C° 0 mm 3 mps 732 mmHg 52%
    02:00 +17°C° 0 mm 3 mps 731 mmHg 52%
    03:00 +18°C° 0 mm 4 mps 731 mmHg 54%
    04:00 +18°C° 0 mm 4 mps 731 mmHg 55%
    05:00 +18°C° 0 mm 4 mps 730 mmHg 56%
    06:00 +21°C° 0 mm 5 mps 731 mmHg 50%
    07:00 +25°C° 0 mm 5 mps 731 mmHg 45%
    08:00 +28°C° 0 mm 6 mps 731 mmHg 39%
    09:00 +29°C° 0 mm 6 mps 731 mmHg 37%
    10:00 +30°C° 0 mm 5 mps 732 mmHg 35%
    11:00 +32°C° 0 mm 5 mps 732 mmHg 33%
    12:00 +33°C° 0 mm 5 mps 732 mmHg 32%
    13:00 +33°C° 0 mm 4 mps 732 mmHg 30%
    14:00 +34°C° 0 mm 4 mps 731 mmHg 29%
    15:00 +33°C° 0 mm 4 mps 731 mmHg 32%
    16:00 +33°C° 0 mm 3 mps 731 mmHg 34%
    17:00 +31°C° 0 mm 3 mps 730 mmHg 36%
    18:00 +28°C° 0.2 mm 4 mps 730 mmHg 47%
    19:00 +26°C° 0.2 mm 4 mps 731 mmHg 57%
    20:00 +22°C° 0.2 mm 4 mps 731 mmHg 67%
    21:00 +21°C° 0.3 mm 3 mps 731 mmHg 71%
    22:00 +20°C° 0.3 mm 2 mps 731 mmHg 76%
    23:00 +20°C° 0.3 mm 1 mps 731 mmHg 80%

    2 June, Tuesday

    Time Temperature Precipitation Wind Pressure Humidity
    00:00 +20°C° 0.4 mm 1 mps 730 mmHg 82%
    01:00 +19°C° 0.4 mm 2 mps 730 mmHg 83%
    02:00 +18°C° 0.4 mm 2 mps 730 mmHg 85%
    03:00 +19°C° 0.1 mm 2 mps 730 mmHg 84%
    04:00 +19°C° 0.1 mm 2 mps 730 mmHg 82%
    05:00 +20°C° 0.1 mm 2 mps 729 mmHg 81%
    06:00 +21°C° 0.1 mm 3 mps 729 mmHg 74%
    07:00 +23°C° 0.1 mm 4 mps 729 mmHg 68%
    08:00 +26°C° 0.1 mm 5 mps 729 mmHg 62%
    09:00 +29°C° 0 mm 6 mps 728 mmHg 50%
    10:00 +32°C° 0 mm 6 mps 728 mmHg 38%
    11:00 +35°C° 0 mm 6 mps 728 mmHg 27%
    12:00 +35°C° 0 mm 5 mps 728 mmHg 27%
    13:00 +35°C° 0 mm 4 mps 728 mmHg 26%
    14:00 +35°C° 0 mm 3 mps 727 mmHg 26%
    15:00 +33°C° 0.1 mm 3 mps 728 mmHg 35%
    16:00 +30°C° 0.1 mm 2 mps 728 mmHg 43%
    17:00 +28°C° 0.1 mm 2 mps 729 mmHg 52%
    18:00 +25°C° 0.8 mm 1 mps 729 mmHg 61%
    19:00 +22°C° 0.8 mm 1 mps 729 mmHg 71%
    20:00 +19°C° 0.8 mm 1 mps 730 mmHg 80%
    21:00 +19°C° 0 mm 1 mps 730 mmHg 81%
    22:00 +18°C° 0 mm 1 mps 731 mmHg 83%
    23:00 +16°C° 0 mm 1 mps 731 mmHg 84%
    Show more